EHI
0 0 0 0 0 0 0 0 0 0 0 0 0 0 0 0 0 0 0 0 0 0 0 0 0 0 0 0 0 0 0 0 0 0 0 0 0 0 0 0 0 0 0
0 0 0 0 0 0 0 0 0 0 0 0 0 0 0 0 0 0 0 0 0 0 0 0 0 0 0 0 0 0 0 0 0 0 0 0 0 0 0 0 0 0 0
0 0 0 0 0 0 0 0 0 0 0 0 0 0 0 0 0 0 0 0 0 0 0 0 0 0 0 0 0 0 0 0 0 0 0 0 0 0 0 0 0 0 0
0 0 0 0 0 0 0 0 0 0 0 0 0 0 0 0 0 0 0 0 0 0 0 0 0 0 0 0 0 0 0 0 0 0 0 0 0 0 0 0 0 0 0
0 0 0 0 0 0 0 0 0 0 0 0 0 0 0 0 0 0 0 0 0 0 0 0 0 0 0 0 0 0 0 0 0 0 0 0 0 0 0 0 0 0 0
0 0 0 0 0 0 0 0 0 0 0 0 0 0 0 0 0 0 0 0 0 0 0 0 0 0 0 0 0 0 0 0 0 0 0 0 0 0 0 0 0 0 0
0 0 0 0 0 0 0 0 0 0 0 0 0 0 0 0 0 0 0 0 0 0 0 0 0 0 0 0 0 0 0 0 0 0 0 0 0 0 0 0 0 0 0
0 0 0 0 0 0 0 0 0 0 0 0 0 0 0 0 0 0 0 0 0 0 0 0 0 0 0 0 0 0 0 0 0 0 0 0 0 0 0 0 0 0 0
0 0 0 0 0 0 0 0 0 0 0 0 0 0 0 0 0 0 0 0 0 0 0 0 0 0 0 0 0 0 0 0 0 0 0 0 0 0 0 0 0 0 0
0 0 0 0 0 0 0 0 0 0 0 0 0 0 0 0 0 0 0 0 0 0 0 0 0 0 0 0 0 0 0 0 0 0 0 0 0 0 0 0 0 0 0
0 0 0 0 0 0 0 0 0 0 0 0 0 0 0 0 0 0 0 0 0 0 0 0 0 0 0 0 0 0 0 0 0 0 0 0 0 0 0 0 0 0 0
0 0 0 0 0 0 0 0 0 0 0 0 0 0 0 0 0 0 0 0 0 0 0 0 0 0 0 0 0 0 0 0 0 0 0 0 0 0 0 0 0 0 0
0 0 0 0 0 0 0 0 0 0 0 0 0 0 0 0 0 0 0 0 0 0 0 0 0 0 0 0 0 0 0 0 0 0 0 0 0 0 0 0 0 0 0
0 0 0 0 0 0 0 0 0 0 0 0 0 0 0 0 0 0 0 0 0 0 0 0 0 0 0 0 0 0 0 0 0 0 0 0 0 0 0 0 0 0 0
0 0 0 0 0 0 0 0 0 0 0 0 0 0 0 0 0 0 0 0 0 0 0 0 0 0 0 0 0 0 0 0 0 0 0 0 0 0 0 0 0 0 0
0 0 0 0 0 0 0 0 0 0 0 0 0 0 0 0 0 0 0 0 0 0 0 0 0 0 0 0 0 0 0 0 0 0 0 0 0 0 0 0 0 0 0
0 0 0 0 0 0 0 0 0 0 0 0 0 0 0 0 0 0 0 0 0 0 0 0 0 0 0 0 0 0 0 0 0 0 0 0 0 0 0 0 0 0 0
0 0 0 0 0 0 0 0 0 0 0 0 0 0 0 0 0 0 0 0 0 0 0 0 0 0 0 0 0 0 0 0 0 0 0 0 0 0 0 0 0 0 0
0 0 0 0 0 0 0 0 0 0 0 0 0 0 0 0 0 0 0 0 0 0 0 0 0 0 0 0 0 0 0 0 0 0 0 0 0 0 0 0 0 0 0
0 0 0 0 0 0 0 0 0 0 0 0 0 0 0 0 0 0 0 0 0 0 0 0 0 0 0 0 0 0 0 0 0 0 0 0 0 0 0 0 0 0 0
0 0 0 0 0 0 0 0 0 0 0 0 0 0 0 0 0 0 0 0 0 0 0 0 0 0 0 0 0 0 0 0 0 0 0 0 0 0 0 0 0 0 0
0 0 0 0 0 0 0 0 0 0 0 0 0 0 0 0 0 0 0 0 0 0 0 0 0 0 0 0 0 0 0 0 0 0 0 0 0 0 0 0 0 0 0
0 0 0 0 0 0 0 0 0 0 0 0 0 0 0 0 0 0 0 0 0 0 0 0 0 0 0 0 0 0 0 0 0 0 0 0 0 0 0 0 0 0 0
0 0 0 0 0 0 0 0 0 0 0 0 0 0 0 0 0 0 0 0 0 0 0 0 0 0 0 0 0 0 0 0 0 0 0 0 0 0 0 0 0 0 0
0 0 0 0 0 0 0 0 0 0 0 0 0 0 0 0 0 0 0 0 0 0 0 0 0 0 0 0 0 0 0 0 0 0 0 0 0 0 0 0 0 0 0
0 0 0 0 0 0 0 0 0 0 0 0 0 0 0 0 0 0 0 0 0 0 0 0 0 0 0 0 0 0 0 0 0 0 0 0 0 0 0 0 0 0 0
Wind_Speed
9 8 8 7 6 6 4 5 4 5 5 5 4 4 5 5 5 5 4 4 5 5 5 6 5 5 3 3 3 3 3 2 3 3 3 3 4 5 4 4 4 4 7
9 9 8 8 7 7 6 6 5 5 4 5 5 4 4 4 4 5 5 4 5 5 5 5 5 4 4 4 3 4 3 3 2 3 3 3 4 4 4 4 4 4 4
10 10 9 9 8 8 7 6 6 5 5 5 5 4 4 4 4 4 4 4 5 5 5 5 5 4 4 3 3 3 3 3 2 2 3 2 2 3 3 3 4 3 3
11 10 10 9 9 8 7 7 6 6 6 5 5 4 4 4 4 4 4 4 4 5 4 4 4 4 4 3 3 3 2 2 2 2 2 2 2 3 2 2 2 3 3
12 11 10 10 9 8 7 7 6 6 6 5 5 4 4 3 2 3 4 4 4 4 4 4 5 6 8 5 3 3 2 1 1 1 1 1 2 2 3 3 3 3 2
12 11 10 10 10 9 8 8 7 6 6 6 5 5 4 3 4 2 1 4 3 3 3 3 4 4 5 5 6 7 6 3 2 2 1 2 3 3 3 3 3 4 2
13 12 11 11 10 10 9 8 8 7 6 6 5 5 5 5 6 5 2 1 2 2 2 3 2 3 2 3 4 3 3 4 4 4 3 3 3 3 4 4 4 5 4
13 12 12 11 11 10 9 9 8 7 7 6 6 6 5 6 7 7 5 4 3 3 2 2 2 3 2 0 1 1 2 2 2 2 3 3 4 4 4 5 5 4 3
13 13 12 12 12 11 11 10 8 7 7 7 6 6 6 7 8 8 7 4 3 3 2 1 1 2 3 2 1 1 1 1 2 2 4 4 4 5 5 4 4 4 4
13 12 12 12 12 12 11 10 8 7 7 6 6 6 7 6 9 9 8 4 4 3 3 3 2 0 2 1 2 1 1 1 1 2 2 3 2 1 3 4 4 5 5
12 12 12 12 12 11 10 9 8 7 7 7 7 6 6 5 9 9 8 5 4 4 3 3 3 4 2 2 3 2 2 4 2 2 2 2 2 2 2 3 3 4 5
11 11 11 11 10 9 9 9 8 8 8 7 7 6 5 5 5 8 8 6 3 4 3 2 2 5 4 3 3 1 2 4 3 2 3 3 3 3 3 3 4 4 5
11 11 11 11 10 9 10 9 8 8 7 7 6 6 6 5 5 7 8 7 5 4 1 2 2 4 5 4 4 4 4 3 3 3 3 3 3 4 4 3 4 5 6
12 11 11 11 10 9 8 8 8 8 7 7 7 6 6 6 6 6 7 7 7 6 4 4 5 3 3 2 3 5 4 3 4 4 4 4 4 4 4 4 4 4 5
11 10 10 9 9 9 8 6 7 7 6 6 6 6 6 6 6 6 6 6 5 5 5 4 4 4 4 4 3 3 3 4 4 4 4 4 4 4 4 4 4 5 6
10 10 8 8 7 7 7 6 2 1 3 2 2 3 4 3 8 8 7 5 5 6 5 5 4 4 4 4 4 4 4 4 4 4 4 5 5 5 5 5 5 5 6
10 9 8 7 7 7 7 7 6 4 3 3 3 4 4 6 8 9 9 8 7 7 6 5 5 4 4 4 4 4 4 4 4 4 5 5 5 5 5 6 5 6 7
9 8 7 7 7 7 7 6 6 6 6 4 5 6 6 7 8 9 9 8 6 7 6 5 5 5 5 5 4 5 4 4 4 5 5 5 5 5 6 6 6 7 7
7 6 6 6 6 6 6 6 6 6 5 5 5 6 7 7 7 7 9 6 6 6 6 6 5 5 5 5 4 4 5 5 5 5 5 6 5 6 6 6 7 7 8
6 6 6 6 6 6 6 6 5 5 5 5 5 5 6 6 6 6 7 6 6 5 5 5 5 5 5 4 4 4 5 5 5 5 5 5 5 6 7 8 7 7 7
5 7 7 6 5 5 5 5 5 5 5 4 4 5 6 6 6 6 6 6 6 5 5 5 4 4 4 4 4 5 6 5 5 5 5 5 6 6 6 7 7 8 8
5 6 6 5 5 5 5 5 5 5 5 5 4 5 7 5 4 4 5 5 5 4 4 4 4 4 4 4 5 5 5 5 5 5 6 6 6 6 6 7 7 7 8
5 5 5 5 5 5 5 4 4 4 4 4 4 4 5 4 4 4 4 3 3 3 3 3 4 3 3 3 4 4 5 5 5 5 6 6 6 6 7 7 8 9 8
5 5 5 5 5 5 5 4 4 4 4 4 4 4 4 4 4 4 3 3 3 3 3 3 3 4 4 3 3 3 3 3 4 5 7 7 7 6 7 7 8 9 9
4 4 5 5 5 5 4 4 4 4 4 4 4 4 4 4 3 3 3 3 3 3 3 3 2 3 4 4 3 2 1 2 4 5 5 6 7 7 8 8 8 9 9
3 4 3 3 4 4 4 4 4 4 4 4 4 3 3 3 3 3 3 3 3 3 3 3 3 3 4 3 2 1 1 2 3 6 6 6 6 7 8 7 10 9 10
Wind_Direction
181 179 174 168 165 162 160 153 155 147 145 135 128 121 114 111 107 99 90 91 90 94 90 84 77 66 72 64 54 52 40 43 91 89 73 61 49 39 34 32 37 40 61
181 178 178 168 171 169 164 165 166 153 145 141 135 131 118 111 105 105 101 95 89 86 84 85 86 81 72 60 54 58 56 48 74 91 85 58 46 37 28 21 28 33 47
180 180 180 177 177 172 168 166 166 158 154 150 148 143 131 127 123 120 117 111 100 89 82 78 80 83 81 76 63 65 63 61 58 88 75 52 38 34 26 19 36 24 27
177 182 183 183 180 177 169 170 170 164 162 159 152 146 139 139 139 136 126 121 110 100 90 77 69 70 66 71 69 67 62 69 58 60 70 65 46 24 359 3 14 22 11
179 183 184 182 178 175 168 171 170 169 170 166 163 155 146 149 137 139 135 131 124 113 101 87 70 56 43 36 34 49 55 51 56 38 42 34 36 11 1 348 348 344 16
181 184 179 180 176 178 175 173 171 173 173 169 173 162 154 145 111 93 181 148 138 131 122 111 107 107 94 79 53 38 22 16 18 23 18 9 13 12 354 331 338 335 349
184 183 178 180 178 180 174 172 174 175 173 173 174 168 165 147 142 153 190 167 146 137 139 129 113 108 148 126 125 131 79 37 360 344 356 1 351 356 336 334 341 337 336
183 182 180 180 179 178 177 179 179 177 175 178 176 173 168 158 157 164 178 184 163 159 160 153 149 136 95 24 135 110 68 53 16 335 351 356 354 345 331 326 324 311 300
184 182 181 182 181 180 182 184 181 179 180 180 176 180 179 167 165 176 195 178 178 174 162 154 166 141 93 295 234 172 152 114 95 46 14 12 17 358 329 310 314 309 311
186 183 182 183 183 184 185 183 177 178 181 178 177 185 184 178 165 182 211 192 188 178 171 161 109 61 106 244 237 232 251 283 256 187 211 223 253 242 277 300 313 310 312
181 179 179 183 185 183 179 177 173 174 177 181 178 181 186 184 167 180 209 218 199 192 187 185 155 160 179 212 269 284 317 307 286 282 282 284 284 297 296 296 304 301 301
171 175 177 179 178 175 173 174 174 172 175 180 182 180 185 181 182 179 192 220 252 212 206 199 151 156 184 207 224 255 283 277 275 276 278 284 291 296 301 303 298 290 288
169 173 176 174 173 173 173 173 174 178 184 185 187 188 185 180 170 172 187 198 220 228 208 89 117 166 189 194 206 230 236 247 262 269 277 285 291 295 296 293 288 287 285
172 173 174 174 171 173 175 178 180 184 188 190 192 193 187 184 185 179 183 186 188 202 205 171 173 189 217 236 209 211 231 249 261 267 275 281 283 281 278 283 283 285 283
170 170 172 173 170 174 176 182 191 191 195 195 194 193 190 195 184 175 186 188 191 190 191 202 207 206 213 220 228 232 235 235 242 256 268 275 277 276 276 278 280 283 285
168 169 168 167 169 172 169 165 96 112 141 180 200 204 190 164 147 162 174 171 164 171 196 213 218 223 230 234 235 235 237 244 251 257 262 268 272 276 278 277 275 277 283
168 166 165 167 167 172 174 175 167 144 123 157 177 184 178 154 156 166 172 172 175 182 209 224 228 230 232 236 240 245 248 249 252 254 257 264 270 274 276 278 278 279 282
164 157 160 165 169 173 176 179 177 173 170 169 174 178 171 166 170 171 169 169 187 202 222 228 232 234 235 238 242 247 252 255 254 257 261 265 268 273 276 278 280 284 286
159 157 162 163 167 169 171 174 175 176 174 166 160 158 168 168 171 178 182 204 210 210 217 227 233 235 237 238 242 247 251 255 258 260 262 266 270 272 275 278 281 284 282
154 143 152 158 161 164 168 172 173 173 174 172 173 166 163 177 186 185 199 215 221 221 221 225 230 234 235 237 239 244 250 252 256 258 262 265 267 270 274 278 281 284 284
148 147 154 161 164 167 170 173 174 175 178 179 178 167 175 191 195 197 201 210 219 224 226 228 228 229 233 236 239 243 249 255 256 261 264 266 268 269 272 275 279 282 286
150 153 165 168 165 168 171 172 173 176 179 180 170 160 175 200 201 204 209 213 219 226 230 230 230 229 232 236 241 246 252 257 261 264 267 269 270 271 273 274 277 281 283
152 154 159 160 161 153 164 168 171 174 177 179 174 169 178 199 204 209 213 216 219 223 225 227 231 233 236 242 247 253 258 264 272 277 277 276 275 276 277 278 280 283 286
154 157 157 156 158 161 166 168 172 175 179 180 180 180 184 194 203 205 205 208 211 213 217 221 228 235 240 248 250 253 267 287 289 282 280 279 280 281 282 282 284 285 286
160 159 159 160 160 164 166 167 171 175 180 185 186 187 190 193 198 199 201 203 204 207 212 219 227 238 246 247 253 267 349 324 298 294 283 278 278 280 283 285 285 287 287
161 159 159 157 160 166 169 171 175 179 184 186 189 190 192 194 197 199 201 202 204 207 211 217 226 238 250 251 257 285 291 285 288 290 285 281 280 280 285 284 286 285 287